NOAA 17 DEB, 48766

Orbit data source: Space-Track

NOAA 17 DEB, 48766 is space debris in SSO originally from a launch on Mon, 24 Jun 2002 UTC launched from the Air Force Western Test Range (AFWTR). Debris objects in space refer to the collection of defunct objects orbiting the Earth. Examples of debris include non-operational satellites, rocket bodies, and fragments generated from explosions, collisions, or faulty payload assembly.

Loading next visibility...
Identifier
48766, 2002-032DB
Orbit
SSO
Country
Flag of USUS
Related business
Manufacturer
Unknown
Mission
Spacecraft
Bus & Motor
Unknown
Mass
Unknown
Launch date (UTC)
2002-06-24 (24 years ago)
Launch vehicle
Unknown
Launch site
Air Force Western Test Range (AFWTR)
Object type
Payload
Rocket body
Debris
Shape & HBR
Unknown shape, 0.1 m
Radar Cross Section
Medium (>0.1 m² and <1 m²)

Expand to show TLE details & history
Last TLE update: 2 days ago

TLE from 2 days ago
0 NOAA 17 DEB
1 48766U 02032DB  26171.12345235  .00007190  00000-0  15381-2 0  9997
2 48766  98.6065 133.8345 0004588 227.1032 132.9782 14.59071303271674
Epoch: 2026-06-20T02:57Z
TLE epoch observation values (Epoch: 2026-06-20T02:57:46.283Z)
Latitude
0.00004°
Longitude
-178.95094°
Altitude
701.359 km
Speed
7.504 km/s
True Right ascension
08h 55m 20s
True Declination
0° 00' 00"
Sunlit
Object was in daylight at epoch
Visualization orbit readout
Latitude
Unknown
Longitude
Unknown
Altitude
Unknown
Speed
Unknown
Apparent Right ascension
Unknown
Apparent Declination
Unknown
Sunlit
N/A
Visualization observer readout
Local Sidereal Time
21:38:27
Azimuth
Unknown
Elevation
Unknown
Doppler factor
Unknown
Orbital elements
Apogee altitude
696.52 km
Perigee altitude
690.031 km
Semi-major axis
7,071.413 km
Eccentricity
0.00046
Inclination
98.6065°
RAAN
133.8345°
Arg. of periapsis
227.1032°
True anomaly
133.01665°
Mean anomaly
132.9782°
Eccentric anomaly
132.99743°
Mean motion
3.64992 °/min
Orbital period
98.63 mins
BSTAR
0.0015381
Loading maneuver chart data...
Computing Atmospheric mass density...

Documentation

Showing up to 5 results
|